Weather History for Elkins, WV

Change the Weather History Date:

Wednesday, December 4, 2013

  Actual Average Record
Temperature  
Mean Temperature 48 °F 36 °F  
Max Temperature 64 °F 46 °F 71 °F (2001)
Min Temperature 31 °F 26 °F -5 °F (1966)
Degree Days  
Heating Degree Days 17 29  
Month to date heating degree days 96 115  
Since 1 July heating degree days 1391 1399  
Cooling Degree Days 0 0  
Month to date cooling degree days 0 0  
Year to date cooling degree days 533 475  
Moisture  
Dew Point 37 °F    
Average Humidity 74    
Maximum Humidity 96    
Minimum Humidity 52    
Precipitation  
Precipitation 0.00 in 0.11 in 1.35 in (1900)
Month to date precipitation 0.00 0.45  
Year to date precipitation 39.74 43.12  
Snow  
Snow 0.00 in - - ()
Month to date snowfall 0.0  
Since 1 September snowfall 6.9  
Snow Depth 0.00 in    
Sea Level Pressure  
Sea Level Pressure 30.00 in    
Wind  
Wind Speed 1 mph (SSE)    
Max Wind Speed 9 mph    
Max Gust Speed 14 mph    
Visibility 9 miles    
Events      
T = Trace of Precipitation, MM = Missing Value Source: NWS Daily Summary

Daily Weather History Graph

Daily Weather History Graph

Search for Another Location

Airport:

Trip Planner

Search our weather history database for the weather conditions in past years. The results will help you decide how hot, cold, wet, or windy it might be!

Date:

Astronomy

Dec. 04, 2013 Rise Set
Actual Time 7:22 AM EST 4:57 PM EST
Civil Twilight 6:52 AM EST 5:26 PM EST
Nautical Twilight 6:19 AM EST 6:00 PM EST
Astronomical Twilight 5:47 AM EST 6:32 PM EST
Moon 8:49 AM EST (12/4) 7:05 PM EST (12/4)
Length of Visible Light 10h 34m
Length of Day
9h 35m
Waxing Crescent, 4% of the Moon is Illuminated
Dec 4
Waxing Crescent
Dec 9
First Quarter
Dec 17
Full
Dec 25
Last Quarter
Jan 1
New

Hourly Weather History & Observations

Time (EST) Temp. Dew Point Humidity Pressure Visibility Wind Dir Wind Speed Gust Speed Precip Events Conditions
12:51 AM 33.1 °F 30.9 °F 92% 29.96 in 10.0 mi Calm Calm - N/A   Scattered Clouds
1:51 AM 34.0 °F 32.0 °F 92% 29.99 in 10.0 mi Calm Calm - N/A   Overcast
2:51 AM 35.1 °F 33.1 °F 92% 30.00 in 10.0 mi Calm Calm - N/A   Overcast
3:51 AM 35.1 °F 34.0 °F 96% 29.99 in 8.0 mi Calm Calm - 0.00 in   Overcast
4:51 AM 32.0 °F 30.0 °F 92% 29.99 in 2.5 mi Calm Calm - N/A   Partly Cloudy
5:13 AM 32.0 °F 30.2 °F 93% 29.95 in 1.2 mi Calm Calm - N/A   Clear
5:30 AM 32.0 °F 30.2 °F 93% 29.96 in 3.0 mi Calm Calm - N/A   Mostly Cloudy
5:51 AM 34.0 °F 32.0 °F 92% 30.02 in 8.0 mi Calm Calm - N/A   Overcast
6:51 AM 34.0 °F 32.0 °F 92% 30.05 in 7.0 mi Calm Calm - N/A   Mostly Cloudy
7:51 AM 36.0 °F 34.0 °F 93% 30.07 in 9.0 mi Calm Calm - N/A   Overcast
8:51 AM 39.9 °F 37.0 °F 89% 30.06 in 10.0 mi Calm Calm - N/A   Partly Cloudy
9:51 AM 46.0 °F 39.9 °F 79% 30.06 in 10.0 mi Calm Calm - N/A   Clear
10:51 AM 52.0 °F 43.0 °F 71% 30.05 in 10.0 mi Calm Calm - N/A   Clear
11:51 AM 59.0 °F 45.0 °F 60% 30.01 in 10.0 mi Calm Calm - N/A   Clear
12:51 PM 62.1 °F 44.1 °F 52% 29.98 in 10.0 mi South 5.8 mph - N/A   Clear
1:51 PM 62.1 °F 44.1 °F 52% 29.96 in 10.0 mi SSE 5.8 mph - N/A   Clear
2:51 PM 62.1 °F 44.1 °F 52% 29.94 in 10.0 mi Variable 4.6 mph - N/A   Clear
3:51 PM 62.1 °F 44.1 °F 52% 29.95 in 10.0 mi South 5.8 mph - N/A   Clear
4:51 PM 55.0 °F 43.0 °F 64% 29.97 in 10.0 mi SSE 4.6 mph - N/A   Clear
5:51 PM 53.1 °F 43.0 °F 69% 29.98 in 10.0 mi SE 4.6 mph - N/A   Clear
6:51 PM 45.0 °F 41.0 °F 86% 30.00 in 10.0 mi Calm Calm - N/A   Clear
7:51 PM 41.0 °F 37.9 °F 89% 30.01 in 10.0 mi Calm Calm - N/A   Clear
8:51 PM 39.0 °F 37.0 °F 93% 30.02 in 10.0 mi Calm Calm - N/A   Clear
9:51 PM 37.9 °F 36.0 °F 93% 30.01 in 10.0 mi Calm Calm - N/A   Clear
10:51 PM 37.0 °F 35.1 °F 93% 30.02 in 10.0 mi Calm Calm - N/A   Clear
11:51 PM 42.1 °F 39.0 °F 89% 30.01 in 10.0 mi Calm Calm - N/A   Clear